AD8AK Weather Reports


time (UTC)temp
C
wind
direction
speed
KPH
gust
KPH
rain 1hr
cm
rain 24hr
cm
rain mn
cm
humidity
%
barometer
mb
20260508185411 11 230 0.0 0.0 0.00 0.30 0.30 91 1011.0
20260508184908 11 264 0.0 1.6 0.00 0.30 0.30 91 1011.2
20260508184405 11 238 1.6 3.2 0.00 0.30 0.30 91 1011.0
20260508183902 11 258 3.2 3.2 0.00 0.30 0.30 92 1011.1
20260508183358 11 221 1.6 3.2 0.00 0.30 0.30 92 1011.3
20260508182853 11 241 3.2 3.2 0.00 0.30 0.30 92 1011.2
20260508182350 11 223 3.2 4.8 0.13 0.30 0.30 91 1011.1
20260508181846 11 273 0.0 1.6 0.13 0.30 0.30 91 1011.4
20260508181343 11 284 1.6 3.2 0.18 0.28 0.28 91 1011.5
20260508180840 11 219 3.2 4.8 0.36 0.28 0.28 90 1011.6
20260508180337 11 248 1.6 4.8 0.30 0.25 0.25 90 1011.7
20260508175833 11 300 1.6 6.4 0.30 0.23 0.23 89 1011.6
20260508175330 11 224 3.2 4.8 0.00 0.18 0.18 89 1012.0
20260508174828 11 217 3.2 6.4 0.43 0.18 0.18 88 1011.7
20260508174325 12 230 4.8 6.4 0.43 0.18 0.18 85 1011.7
20260508173821 12 264 4.8 6.4 0.00 0.10 0.10 82 1011.8
20260508173319 12 319 4.8 6.4 0.00 0.10 0.10 80 1011.4
20260508172814 13 294 4.8 6.4 0.00 0.10 0.10 79 1011.5
20260508172311 12 260 0.0 3.2 0.00 0.10 0.10 80 1011.2
20260508171808 13 209 6.4 6.4 0.00 0.10 0.10 79 1011.5
20260508171304 12 242 3.2 6.4 0.00 0.10 0.10 81 1011.3
20260508170801 12 137 6.4 9.7 0.00 0.10 0.10 81 1011.8
20260508170259 12 268 3.2 9.7 0.00 0.10 0.10 80 1011.7
20260508165755 12 171 3.2 6.4 0.00 0.10 0.10 82 1012.1
20260508165253 12 232 3.2 6.4 0.00 0.10 0.10 81 1012.0
20260508164748 12 243 3.2 4.8 0.00 0.10 0.10 82 1012.1
20260508164245 11 222 3.2 4.8 0.00 0.10 0.10 82 1012.2
20260508163744 11 240 3.2 4.8 0.18 0.10 0.10 83 1012.1
20260508163241 11 215 1.6 4.8 0.00 0.08 0.08 83 1012.1
20260508162737 11 240 1.6 4.8 0.00 0.08 0.08 82 1012.4
20260508162234 11 273 3.2 6.4 0.00 0.08 0.08 81 1012.6
20260508161731 11 212 1.6 4.8 0.00 0.08 0.08 79 1012.5
20260508161228 11 210 3.2 4.8 0.00 0.08 0.08 78 1012.7
20260508160726 11 313 4.8 4.8 0.00 0.08 0.08 78 1012.9
20260508160224 11 238 1.6 11.3 0.00 0.08 0.08 77 1012.8
20260508155720 11 262 3.2 9.7 0.00 0.08 0.08 75 1012.8
20260508155217 11 243 3.2 4.8 0.00 0.08 0.08 75 1012.7
20260508154714 11 288 3.2 4.8 0.00 0.08 0.08 75 1012.9
20260508154211 12 236 4.8 6.4 0.00 0.08 0.08 73 1012.7
20260508153708 12 292 1.6 4.8 0.00 0.08 0.08 73 1012.6
20260508153205 12 282 6.4 11.3 0.00 0.08 0.08 71 1012.7
20260508152701 12 255 3.2 4.8 0.00 0.08 0.08 71 1012.6
20260508152157 12 217 3.2 6.4 0.00 0.08 0.08 72 1012.5
20260508151654 12 247 3.2 4.8 0.00 0.08 0.08 72 1012.4
20260508151151 12 220 6.4 6.4 0.00 0.08 0.08 72 1012.6
20260508150648 12 250 1.6 4.8 0.00 0.08 0.08 72 1012.5
20260508150144 12 255 3.2 3.2 0.00 0.08 0.08 72 1012.4
20260508145640 12 323 1.6 9.7 0.00 0.08 0.08 71 1012.6
20260508145136 12 316 3.2 4.8 0.00 0.08 0.08 71 1012.6
20260508144634 12 285 1.6 9.7 0.00 0.08 0.08 70 1012.4
20260508144132 12 285 3.2 6.4 0.00 0.08 0.08 70 1012.5
20260508143629 12 282 3.2 4.8 0.00 0.08 0.08 71 1012.6
20260508143126 12 240 3.2 4.8 0.00 0.08 0.08 70 1012.6
20260508142622 12 276 4.8 6.4 0.00 0.08 0.08 70 1012.5
20260508142119 11 324 1.6 4.8 0.00 0.08 0.08 71 1012.2
20260508141616 11 284 3.2 3.2 0.00 0.08 0.08 71 1012.6
20260508141113 11 329 3.2 11.3 0.00 0.08 0.08 71 1012.7
20260508140610 11 213 4.8 6.4 0.00 0.08 0.08 72 1012.6
20260508140107 12 296 3.2 4.8 0.00 0.08 0.08 71 1012.5
20260508135602 12 291 3.2 11.3 0.00 0.08 0.08 70 1012.5
20260508135059 11 199 3.2 9.7 0.00 0.08 0.08 71 1012.3
20260508134556 11 281 3.2 3.2 0.00 0.08 0.08 72 1012.5
20260508134053 11 216 4.8 4.8 0.00 0.08 0.08 71 1012.6
20260508133549 11 315 0.0 3.2 0.00 0.08 0.08 72 1012.5
20260508133047 11 242 3.2 4.8 0.00 0.08 0.08 72 1012.7
20260508132545 11 252 1.6 4.8 0.00 0.08 0.08 72 1012.8
20260508132041 11 255 3.2 4.8 0.00 0.08 0.08 71 1012.7
20260508131536 11 283 3.2 6.4 0.00 0.08 0.08 71 1012.6
20260508131033 11 300 3.2 6.4 0.00 0.08 0.08 71 1012.5
20260508130530 11 299 3.2 4.8 0.00 0.08 0.08 72 1012.7
20260508130027 11 307 3.2 3.2 0.00 0.08 0.08 72 1012.6
20260508125522 11 291 1.6 3.2 0.00 0.08 0.08 72 1012.6
20260508125021 10 290 3.2 4.8 0.00 0.08 0.08 73 1012.7
20260508124518 10 240 3.2 3.2 0.00 0.08 0.08 73 1012.7
20260508124015 10 294 1.6 3.2 0.00 0.08 0.08 74 1012.5
20260508123514 10 246 0.0 3.2 0.00 0.08 0.08 73 1012.5
20260508123010 10 309 3.2 4.8 0.00 0.08 0.08 73 1012.7
20260508122507 10 215 1.6 3.2 0.00 0.08 0.08 72 1012.6
20260508122004 10 281 1.6 3.2 0.00 0.08 0.08 73 1012.7
20260508121502 10 332 4.8 6.4 0.00 0.08 0.08 74 1012.5
20260508121000 10 284 1.6 3.2 0.00 0.08 0.08 74 1012.4
20260508120457 9 260 3.2 4.8 0.00 0.08 0.08 74 1012.5
20260508115955 9 254 1.6 3.2 0.00 0.08 0.08 74 1012.5
20260508115452 9 251 3.2 4.8 0.00 0.08 0.08 75 1012.4
20260508114949 9 316 3.2 4.8 0.00 0.08 0.08 75 1012.5
20260508114446 9 269 0.0 1.6 0.00 0.08 0.08 75 1012.4
20260508113942 9 313 1.6 3.2 0.00 0.08 0.08 75 1012.3
20260508113440 8 222 3.2 4.8 0.00 0.08 0.08 75 1012.0
20260508112937 8 289 1.6 4.8 0.00 0.08 0.08 75 1012.1
20260508103123 6 224 0.0 0.0 0.00 0.08 0.08 89 1011.8
20260508102620 6 224 0.0 0.0 0.00 0.08 0.08 89 1011.8
20260508102118 6 228 0.0 0.0 0.00 0.08 0.08 90 1011.6
20260508101615 6 229 0.0 0.0 0.00 0.08 0.08 91 1011.6
20260508101112 6 228 0.0 0.0 0.00 0.08 0.08 92 1011.6
20260508100610 6 228 0.0 0.0 0.00 0.08 0.08 91 1011.6
20260508100107 6 228 0.0 0.0 0.00 0.08 0.08 91 1011.8
20260508095604 6 228 0.0 0.0 0.00 0.08 0.08 91 1011.8
20260508095101 6 228 0.0 0.0 0.00 0.08 0.08 90 1011.8
20260508094558 6 228 0.0 0.0 0.00 0.08 0.08 89 1011.8
20260508094055 6 228 0.0 0.0 0.00 0.08 0.08 89 1011.7
20260508093552 6 228 0.0 0.0 0.00 0.08 0.08 88 1011.7
20260508093050 6 228 0.0 0.0 0.00 0.08 0.08 88 1011.9
20260508092547 6 228 0.0 0.0 0.00 0.08 0.08 87 1012.0
20260508092046 7 228 0.0 0.0 0.00 0.08 0.08 87 1011.9
20260508091542 7 228 0.0 0.0 0.00 0.08 0.08 87 1011.8
20260508091039 7 228 0.0 0.0 0.00 0.08 0.08 86 1011.9
20260508090537 7 228 0.0 0.0 0.00 0.08 0.08 85 1012.0
20260508090033 7 187 0.0 0.0 0.00 0.08 0.08 85 1011.9
20260508085530 7 133 0.0 0.0 0.00 0.08 0.08 85 1011.8
20260508085027 7 229 0.0 0.0 0.00 0.08 0.08 85 1012.0
20260508084524 8 220 0.0 0.0 0.00 0.08 0.08 85 1011.9
20260508084021 8 225 0.0 1.6 0.00 0.08 0.08 84 1011.8
20260508083518 8 226 3.2 3.2 0.00 0.08 0.08 85 1011.8
20260508083015 8 249 0.0 1.6 0.00 0.08 0.08 85 1011.8
20260508082511 8 208 0.0 1.6 0.00 0.08 0.08 85 1011.9
20260508082008 8 196 1.6 1.6 0.00 0.08 0.08 85 1012.0
20260508081506 8 219 1.6 3.2 0.00 0.08 0.08 85 1011.9
20260508081001 8 244 1.6 1.6 0.00 0.08 0.08 85 1011.9
20260508080500 8 234 1.6 1.6 0.00 0.08 0.08 85 1012.1
20260508075956 8 223 1.6 1.6 0.00 0.08 0.08 86 1012.2
20260508075453 8 212 0.0 1.6 0.00 0.08 0.08 86 1011.9
20260508074952 8 203 0.0 1.6 0.00 0.08 0.08 86 1012.1
20260508074449 8 137 0.0 4.8 0.00 0.08 0.08 85 1012.2
20260508073945 8 221 0.0 3.2 0.00 0.08 0.08 85 1012.1
20260508073443 8 162 0.0 0.0 0.00 0.08 0.08 85 1012.3
20260508072939 8 167 0.0 0.0 0.00 0.08 0.08 85 1012.2
20260508072436 8 220 0.0 0.0 0.00 0.08 0.08 85 1012.2
20260508071933 8 220 0.0 0.0 0.00 0.08 0.08 84 1012.2
20260508071431 8 135 0.0 1.6 0.00 0.08 0.08 83 1012.3
20260508070928 8 212 0.0 0.0 0.00 0.08 0.08 83 1012.3
20260508070426 8 225 0.0 0.0 0.00 0.08 0.08 83 1012.4
20260508065924 8 219 0.0 0.0 0.00 0.08 0.08 83 1012.4
20260508065422 8 233 0.0 0.0 0.00 0.08 0.08 82 1012.3
20260508064920 8 262 0.0 1.6 0.00 0.08 0.08 82 1012.4
20260508064417 8 223 1.6 3.2 0.00 0.08 0.08 83 1012.5
20260508063914 8 255 1.6 3.2 0.00 0.08 0.08 86 1012.3
20260508063412 8 272 0.0 0.0 0.00 0.08 0.08 88 1012.3
20260508062909 8 265 0.0 1.6 0.00 0.08 0.08 88 1012.2
20260508062406 8 227 0.0 1.6 0.00 0.08 0.08 88 1012.5
20260508061903 8 228 0.0 0.0 0.00 0.08 0.08 89 1012.3
20260508061401 8 214 0.0 0.0 0.00 0.08 0.08 89 1012.3
20260508060857 8 200 0.0 1.6 0.00 0.08 0.08 89 1012.5
20260508060356 8 223 0.0 1.6 0.00 0.08 0.08 89 1012.7
20260508055856 8 220 1.6 1.6 0.00 0.08 0.08 89 1012.8
20260508055353 8 197 3.2 3.2 0.00 0.08 0.08 90 1012.9
20260508054849 8 225 3.2 3.2 0.00 0.08 0.08 90 1012.9
20260508054347 8 156 1.6 3.2 0.00 0.08 0.08 90 1012.8
20260508053844 8 203 0.0 1.6 0.00 0.08 0.08 90 1012.9
20260508053341 8 229 1.6 3.2 0.00 0.08 0.08 89 1012.9
20260508052838 8 226 1.6 1.6 0.00 0.08 0.08 89 1013.0
20260508052336 8 230 1.6 1.6 0.00 0.08 0.08 88 1013.1
20260508051832 8 223 0.0 1.6 0.00 0.08 0.08 88 1012.9
20260508051327 8 219 1.6 3.2 0.00 0.08 0.08 88 1012.9
20260508050824 8 216 1.6 1.6 0.00 0.08 0.08 87 1013.1
20260508050321 8 215 3.2 3.2 0.00 0.08 0.08 87 1013.0
20260508045817 8 222 1.6 3.2 0.00 0.08 0.08 87 1013.2
20260508045315 8 262 1.6 4.8 0.13 0.08 0.08 87 1013.5
20260508044812 8 238 1.6 3.2 0.13 0.08 0.08 87 1013.3
20260508044308 8 279 1.6 3.2 0.00 0.05 0.05 85 1013.8
20260508043805 8 304 3.2 9.7 0.00 0.05 0.05 84 1014.1
20260508043302 8 298 4.8 6.4 0.18 0.05 0.05 83 1013.9
20260508042758 9 284 6.4 6.4 0.18 0.05 0.05 81 1014.0
20260508042256 9 294 3.2 6.4 0.13 0.03 0.03 77 1013.9
20260508041753 9 328 3.2 4.8 0.13 0.03 0.03 75 1013.8
20260508041249 9 221 3.2 6.4 0.00 0.00 0.00 73 1013.7
20260508040745 9 219 1.6 3.2 0.00 0.00 0.00 76 1013.3
20260508040243 9 223 0.0 0.0 0.00 0.00 0.00 78 1013.6
20260508035740 9 235 0.0 0.0 0.00 0.00 0.00 77 1012.9
20260508035238 9 142 0.0 0.0 0.00 0.00 0.00 77 1012.8
20260508034734 9 244 1.6 1.6 0.00 0.00 0.00 74 1013.1
20260508034232 10 215 0.0 0.0 0.00 0.00 0.00 73 1012.9
20260508033728 9 223 0.0 0.0 0.00 0.00 0.00 72 1013.2
20260508033227 8 232 0.0 1.6 0.00 0.00 0.00 75 1013.0
20260508032724 8 141 1.6 1.6 0.00 0.00 0.00 79 1013.0
20260508032221 8 173 0.0 0.0 0.00 0.00 0.00 81 1012.7
20260508031718 8 184 0.0 0.0 0.00 0.00 0.00 80 1012.9
20260508031214 8 185 0.0 0.0 0.00 0.00 0.00 79 1012.8
20260508030710 8 172 0.0 0.0 0.00 0.00 0.00 79 1013.1
20260508030208 8 165 0.0 0.0 0.00 0.00 0.00 78 1013.0
20260508025704 8 164 0.0 0.0 0.00 0.00 0.00 78 1013.2
20260508025202 8 160 0.0 0.0 0.00 0.00 0.00 77 1013.1
20260508024657 8 160 0.0 0.0 0.00 0.00 0.00 77 1013.0
20260508024155 8 164 0.0 0.0 0.00 0.00 0.00 76 1013.1
20260508023651 9 165 0.0 0.0 0.00 0.00 0.00 75 1013.1
20260508023149 9 179 0.0 0.0 0.00 0.00 0.00 74 1013.1
20260508022644 9 200 0.0 0.0 0.00 0.00 0.00 73 1013.5
20260508022141 9 221 0.0 0.0 0.00 0.00 0.00 71 1013.1
20260508021637 9 217 0.0 0.0 0.00 0.00 0.00 70 1013.2
20260508021133 9 184 0.0 0.0 0.00 0.00 0.00 69 1013.3
20260508020631 10 183 0.0 0.0 0.00 0.00 0.00 69 1013.1
20260508020129 10 202 0.0 0.0 0.00 0.00 0.00 68 1013.2
20260508015626 10 220 0.0 0.0 0.00 0.00 0.00 66 1013.5
20260508015123 10 230 0.0 0.0 0.00 0.00 0.00 66 1013.2
20260508014619 10 324 0.0 1.6 0.00 0.00 0.00 69 1013.2
20260508014115 10 241 0.0 0.0 0.00 0.00 0.00 67 1013.0
20260508013611 10 241 0.0 0.0 0.00 0.00 0.00 67 1013.0
20260508013109 10 294 0.0 0.0 0.00 0.00 0.00 65 1013.1
20260508012606 10 294 0.0 0.0 0.00 0.00 0.00 64 1013.5
20260508012103 10 305 0.0 0.0 0.00 0.00 0.00 63 1013.0
20260508011601 10 321 0.0 1.6 0.00 0.00 0.00 63 1013.2
20260508011058 10 313 0.0 0.0 0.00 0.00 0.00 64 1013.0
20260508010555 10 294 1.6 3.2 0.00 0.00 0.00 61 1012.9
20260508010053 11 327 0.0 3.2 0.00 0.00 0.00 58 1012.9
20260508005549 11 2 1.6 3.2 0.00 0.00 0.00 56 1013.1
20260508005046 11 288 1.6 1.6 0.00 0.00 0.00 55 1013.2
20260508004542 11 283 3.2 4.8 0.00 0.00 0.00 54 1012.9
20260508004038 11 321 4.8 4.8 0.00 0.00 0.00 54 1013.0
20260508003535 11 274 3.2 4.8 0.00 0.00 0.00 53 1013.0
20260508003033 11 258 1.6 4.8 0.00 0.00 0.00 52 1013.1
20260508002529 11 289 3.2 4.8 0.00 0.00 0.00 52 1013.2
20260508002026 11 302 3.2 4.8 0.00 0.00 0.00 52 1013.1
20260508001522 11 298 4.8 6.4 0.00 0.00 0.00 50 1012.9
20260508001018 12 256 1.6 9.7 0.00 0.00 0.00 49 1013.0
20260508000514 12 269 1.6 4.8 0.00 0.00 0.00 49 1013.1
20260508000012 12 327 1.6 4.8 0.00 0.00 0.00 49 1013.0
20260507235508 12 291 1.6 3.2 0.00 0.00 0.00 49 1013.1
20260507235006 12 323 1.6 4.8 0.00 0.00 0.00 48 1012.9
20260507234502 12 346 3.2 6.4 0.00 0.00 0.00 48 1012.7
20260507233958 12 335 4.8 11.3 0.00 0.00 0.00 47 1012.6
20260507233455 12 275 4.8 6.4 0.00 0.00 0.00 46 1012.7
20260507232954 12 331 6.4 11.3 0.00 0.00 0.00 47 1012.7
20260507232450 12 333 6.4 9.7 0.00 0.00 0.00 45 1012.8
20260507231947 13 277 4.8 12.9 0.00 0.00 0.00 43 1012.7
20260507231443 13 305 6.4 9.7 0.00 0.00 0.00 42 1012.6
20260507230940 13 240 3.2 9.7 0.00 0.00 0.00 40 1012.5
20260507230433 13 0 8.0 11.3 0.00 0.00 0.00 39 1012.5
20260507225933 13 277 1.6 4.8 0.00 0.00 0.00 42 1012.5
20260507225428 13 288 1.6 3.2 0.00 0.00 0.00 40 1012.6
20260507224925 13 267 1.6 3.2 0.00 0.00 0.00 42 1012.4
20260507224421 13 252 4.8 6.4 0.00 0.00 0.00 39 1012.4
20260507223918 13 316 3.2 4.8 0.00 0.00 0.00 41 1012.3
20260507223414 13 354 3.2 3.2 0.00 0.00 0.00 41 1012.3
20260507222911 13 323 0.0 3.2 0.00 0.00 0.00 40 1012.4
20260507222408 13 267 3.2 3.2 0.00 0.00 0.00 41 1012.4
20260507221904 13 257 4.8 6.4 0.00 0.00 0.00 39 1012.4
20260507221401 14 321 3.2 6.4 0.00 0.00 0.00 40 1012.6
20260507220857 15 318 3.2 9.7 0.00 0.00 0.00 39 1012.6
20260507220355 14 299 3.2 3.2 0.00 0.00 0.00 40 1012.6
20260507215851 14 228 4.8 6.4 0.00 0.00 0.00 37 1012.6
20260507215348 14 203 3.2 4.8 0.00 0.00 0.00 39 1012.3
20260507214846 13 319 1.6 6.4 0.00 0.00 0.00 39 1012.4
20260507214343 14 292 4.8 11.3 0.00 0.00 0.00 37 1012.1
20260507213838 14 113 1.6 3.2 0.00 0.00 0.00 40 1012.4
20260507213335 13 348 4.8 11.3 0.00 0.00 0.00 39 1012.1
20260507212831 13 311 3.2 4.8 0.00 0.00 0.00 41 1012.7
20260507212327 13 316 1.6 6.4 0.00 0.00 0.00 40 1012.4
20260507211824 13 322 3.2 6.4 0.00 0.00 0.00 39 1012.5
20260507211321 13 358 4.8 6.4 0.00 0.00 0.00 41 1012.5
20260507210818 13 301 4.8 4.8 0.00 0.00 0.00 39 1012.5
20260507210316 13 313 3.2 6.4 0.00 0.00 0.00 40 1012.4
20260507205811 13 327 1.6 6.4 0.00 0.00 0.00 41 1012.4
20260507205308 13 331 3.2 11.3 0.00 0.00 0.00 40 1012.5
20260507204804 13 316 3.2 6.4 0.00 0.00 0.00 42 1012.5
20260507204302 13 351 6.4 11.3 0.00 0.00 0.00 41 1012.5
20260507203800 13 28 6.4 9.7 0.00 0.00 0.00 40 1012.5
20260507203257 14 329 4.8 11.3 0.00 0.00 0.00 39 1012.6
20260507202753 13 329 4.8 12.9 0.00 0.00 0.00 40 1012.4
20260507202249 13 312 8.0 12.9 0.00 0.00 0.00 42 1012.6
20260507201744 13 328 3.2 6.4 0.00 0.00 0.00 41 1012.7
20260507201242 13 305 8.0 11.3 0.00 0.00 0.00 41 1012.5
20260507200738 13 294 6.4 9.7 0.00 0.00 0.00 39 1012.8
20260507200234 13 18 3.2 9.7 0.00 0.00 0.00 41 1012.8
20260507195730 14 322 4.8 11.3 0.00 0.00 0.00 40 1012.8
20260507195228 13 315 4.8 4.8 0.00 0.00 0.00 42 1012.7
20260507194725 13 306 6.4 9.7 0.00 0.00 0.00 41 1013.0
20260507194221 13 330 6.4 9.7 0.00 0.00 0.00 41 1012.8
20260507193717 13 356 6.4 12.9 0.00 0.00 0.00 42 1013.0
20260507193214 12 34 6.4 11.3 0.00 0.00 0.00 41 1012.8
20260507192710 13 297 6.4 11.3 0.00 0.00 0.00 41 1012.9
20260507192208 13 8 9.7 12.9 0.00 0.00 0.00 42 1012.8
20260507191703 13 17 8.0 14.5 0.00 0.00 0.00 40 1012.8
20260507191200 13 234 3.2 11.3 0.00 0.00 0.00 40 1012.9
20260507190651 13 340 6.4 12.9 0.00 0.00 0.00 43 1013.0
20260507190150 13 350 11.3 16.1 0.00 0.00 0.00 39 1013.1
20260507185647 13 335 11.3 14.5 0.00 0.00 0.00 39 1012.9